Avignon, France

12:59 AM CEST on September 26, 2016 (GMT +0200)
Caumont

Weather History for LFMV - October, 2012

Change the Weather History Date:

Wednesday, October 10, 2012

  Actual Average (LFTW) Record (LFTW)
Temperature  
Mean Temperature 68 °F -  
Max Temperature 78 °F 68 °F 80 °F (2011)
Min Temperature 57 °F 54 °F 46 °F (1998)
Cooling Degree Days 2    
Growing Degree Days 18 (Base 50)    
Moisture  
Dew Point 57 °F    
Average Humidity 70    
Maximum Humidity 94    
Minimum Humidity 44    
Precipitation  
Precipitation 0.00 in - - ()
Sea Level Pressure  
Sea Level Pressure 29.89 in    
Wind  
Wind Speed 7 mph ()    
Max Wind Speed 16 mph    
Max Gust Speed -    
Visibility 6.2 miles    
Events      
Averages and records for this station are not official NWS values.
T = Trace of Precipitation, MM = Missing Value Source: Averaged Metar Reports

Daily Weather History Graph

Daily Weather History Graph

Search for Another Location

Airport or City:

Trip Planner

Search our weather history database for the weather conditions in past years. The results will help you decide how hot, cold, wet, or windy it might be!

Date:

Astronomy

Oct. 10, 2012 Rise Set
Actual Time 7:49 AM CEST 7:04 PM CEST
Civil Twilight 7:20 AM CEST 7:33 PM CEST
Nautical Twilight 6:46 AM CEST 8:06 PM CEST
Astronomical Twilight 6:13 AM CEST 8:40 PM CEST
Moon 1:58 AM CEST (10/10) 4:07 PM CEST (10/10)
Length of Visible Light 12h 13m
Length of Day
11h 15m
Waning Crescent, 30% of the Moon is Illuminated
Oct 10
Waning Crescent
Oct 15
New
Oct 22
First Quarter
Oct 29
Full
Nov 7
Last Quarter

Hourly Weather History & Observations

Time (CEST) Temp. Dew Point Humidity Pressure Visibility Wind Dir Wind Speed Gust Speed Precip Events Conditions
12:00 AM 66.2 °F 57.2 °F 73% 29.92 in 6.2 mi NNW 8.1 mph - N/A   Unknown
12:30 AM 64.4 °F 57.2 °F 77% 29.92 in 6.2 mi NNW 6.9 mph - N/A   Unknown
1:00 AM 64.4 °F 57.2 °F 77% 29.92 in 6.2 mi NNW 4.6 mph - N/A   Unknown
1:30 AM 64.4 °F 57.2 °F 77% 29.92 in 6.2 mi NNW 4.6 mph - N/A   Unknown
2:00 AM 62.6 °F 57.2 °F 82% 29.92 in 6.2 mi Variable 2.3 mph - N/A   Unknown
2:30 AM 62.6 °F 57.2 °F 82% 29.92 in 6.2 mi NNW 3.5 mph - N/A   Unknown
3:00 AM 60.8 °F 57.2 °F 88% 29.92 in 6.2 mi NNW 4.6 mph - N/A   Unknown
3:30 AM 60.8 °F 57.2 °F 88% 29.92 in 6.2 mi NW 5.8 mph - N/A   Unknown
4:00 AM 60.8 °F 57.2 °F 88% 29.92 in 6.2 mi NNW 5.8 mph - N/A   Unknown
4:30 AM 60.8 °F 55.4 °F 82% 29.92 in 6.2 mi North 3.5 mph - N/A   Unknown
5:00 AM 59.0 °F 55.4 °F 88% 29.89 in 6.2 mi NNW 4.6 mph - N/A   Unknown
5:30 AM 59.0 °F 57.2 °F 94% 29.89 in 6.2 mi North 6.9 mph - N/A   Unknown
6:00 AM 60.8 °F 57.2 °F 88% 29.89 in 6.2 mi North 6.9 mph - N/A   Unknown
6:30 AM 59.0 °F 55.4 °F 88% 29.89 in 6.2 mi Variable 2.3 mph - N/A   Unknown
7:00 AM 59.0 °F 55.4 °F 88% 29.89 in 6.2 mi North 2.3 mph - N/A   Unknown
7:30 AM 57.2 °F 55.4 °F 94% 29.89 in 6.2 mi North 2.3 mph - N/A   Unknown
8:00 AM 57.2 °F 55.4 °F 94% 29.89 in 6.2 mi North 4.6 mph - N/A   Unknown
8:30 AM 60.8 °F 57.2 °F 88% 29.92 in 6.2 mi NNW 2.3 mph - N/A   Unknown
9:00 AM 62.6 °F 59.0 °F 88% 29.92 in 6.2 mi North 4.6 mph - N/A   Unknown
9:30 AM 66.2 °F 59.0 °F 78% 29.92 in 6.2 mi North 4.6 mph - N/A   Unknown
10:00 AM 68.0 °F 59.0 °F 73% 29.92 in 6.2 mi North 9.2 mph - N/A   Unknown
10:30 AM 69.8 °F 59.0 °F 68% 29.92 in 6.2 mi North 11.5 mph - N/A   Unknown
11:00 AM 71.6 °F 60.8 °F 69% 29.92 in 6.2 mi NNW 10.4 mph - N/A   Unknown
11:30 AM 73.4 °F 59.0 °F 61% 29.92 in 6.2 mi North 11.5 mph - N/A   Unknown
12:00 PM 75.2 °F 59.0 °F 57% 29.92 in 6.2 mi North 13.8 mph - N/A   Unknown
12:30 PM 75.2 °F 57.2 °F 53% 29.89 in 6.2 mi North 15.0 mph - N/A   Unknown
1:00 PM 75.2 °F 57.2 °F 53% 29.89 in 6.2 mi North 13.8 mph - N/A   Unknown
1:30 PM 77.0 °F 57.2 °F 50% 29.89 in 6.2 mi North 16.1 mph - N/A   Unknown
2:00 PM 77.0 °F 57.2 °F 50% 29.86 in 6.2 mi NNW 15.0 mph - N/A   Unknown
2:30 PM 77.0 °F 57.2 °F 50% 29.86 in 6.2 mi NNW 13.8 mph - N/A   Partly Cloudy
3:00 PM 77.0 °F 57.2 °F 50% 29.86 in 6.2 mi North 16.1 mph - N/A   Unknown
3:30 PM 77.0 °F 55.4 °F 47% 29.86 in 6.2 mi North 15.0 mph - N/A   Unknown
4:00 PM 78.8 °F 55.4 °F 44% 29.86 in 6.2 mi NNW 15.0 mph - N/A   Unknown
4:30 PM 77.0 °F 55.4 °F 47% 29.86 in 6.2 mi North 15.0 mph - N/A   Unknown
5:00 PM 77.0 °F 55.4 °F 47% 29.83 in 6.2 mi North 12.7 mph - N/A   Unknown
5:30 PM 77.0 °F 55.4 °F 47% 29.83 in 6.2 mi North 11.5 mph - N/A   Unknown
6:00 PM 75.2 °F 55.4 °F 50% 29.83 in 6.2 mi North 10.4 mph - N/A   Unknown
6:30 PM 73.4 °F 55.4 °F 53% 29.86 in 6.2 mi North 9.2 mph - N/A   Unknown
7:00 PM 71.6 °F 55.4 °F 57% 29.86 in 6.2 mi NNW 8.1 mph - N/A   Unknown
7:30 PM 69.8 °F 55.4 °F 60% 29.86 in 6.2 mi NNW 9.2 mph - N/A   Unknown
8:00 PM 68.0 °F 55.4 °F 64% 29.86 in 6.2 mi NNW 4.6 mph - N/A   Unknown
8:30 PM 68.0 °F 55.4 °F 64% 29.86 in 6.2 mi NNW 5.8 mph - N/A   Unknown
9:00 PM 66.2 °F 55.4 °F 68% 29.86 in 6.2 mi NNW 5.8 mph - N/A   Unknown
9:30 PM 64.4 °F 55.4 °F 73% 29.86 in 6.2 mi NNW 3.5 mph - N/A   Unknown
10:00 PM 62.6 °F 55.4 °F 77% 29.86 in 6.2 mi North 5.8 mph - N/A   Unknown
10:30 PM 62.6 °F 55.4 °F 77% 29.89 in 6.2 mi North 3.5 mph - N/A   Unknown
11:00 PM 64.4 °F 55.4 °F 73% 29.86 in 6.2 mi North 4.6 mph - N/A   Unknown
11:30 PM 60.8 °F 55.4 °F 82% 29.86 in 6.2 mi Variable 2.3 mph - N/A   Unknown